Regional Weather Roundup
Issued by NWS

Home | Current Version | Previous Version | Graphics & Text | Print | Product List | Glossary On
Versions: 1 2 3 4 5 6 7 8 9 10 11 12 13 14 15 16 17 18 19 20 21 22 23 24 25 26 27 28 29 30 31 32 33 34 35 36 37 38 39 40 41 42 43 44 45 46 47 48 49 50
000
ASUS43 KMPX 100510
RWRMN
WEATHER ROUNDUP FOR MINNESOTA
NATIONAL WEATHER SERVICE TWIN CITIES/CHANHASSEN MN
1200 AM CDT THU JUL 10 2014


NOTE: "FAIR" INDICATES FEW OR NO CLOUDS BELOW 12,000 FEET WITH NO
SIGNIFICANT WEATHER AND/OR OBSTRUCTIONS TO VISIBILITY. N/A MEANS
CURRENT SKY AND/OR WEATHER CONDITIONS ARE NOT AVAILABLE.

MNZ060>063-068>070-100600-
   Twin Cities Metro

CITY           SKY/WX    TMP DP  RH WIND       PRES   REMARKS
TWIN CITIES    CLEAR     67  56  67 SE6       30.02R
ST PAUL        CLEAR     66  59  78 CALM      30.02R
BLAINE         CLEAR     64  59  82 SE3       30.02R
LAKEVILLE      CLEAR     57  57 100 CALM      30.02S
SOUTH ST PAUL  CLEAR     66  57  71 CALM      30.02R
LAKE ELMO      FAIR      61  57  88 CALM      30.03S
$$
MNZ001>005-007-008-013>017-022>024-027-028-100600-
   Northwest Minnesota

CITY           SKY/WX    TMP DP  RH WIND       PRES   REMARKS
BEMIDJI        CLEAR     53  50  90 CALM      30.01S
HALLOCK        CLEAR     61  54  77 SE7       29.96F
ROSEAU         CLEAR     55  52  88 CALM      29.99S
WARROAD        CLEAR     57  54  88 CALM      29.99S
THIEF RVR FALL CLEAR     57  52  82 CALM      29.99S
CROOKSTON      CLEAR     61  54  77 SE3       29.99S
FOSSTON        CLEAR     54  48  82 CALM      30.01F
DETROIT LAKES  CLEAR     61  54  77 CALM      30.03R
MOORHEAD       CLEAR     64  55  72 E5        30.00S
PARK RAPIDS    CLEAR     55  53  93 W3        30.01S
$$
MNZ006-009>011-018-025>026-100600-
   North Central Minnesota

CITY           SKY/WX    TMP DP  RH WIND       PRES   REMARKS
FLAG ISLAND    CLEAR     66  57  72 SW8       29.96S
INTL FALLS     CLEAR     51  49  92 CALM      30.00S
WASKISH        CLEAR     54  52  94 SE2       30.00F
LONGVILLE      CLEAR     52  52 100 CALM      30.01S FOG
GRAND RAPIDS   CLEAR     54  48  82 CALM      30.02R
CRANE LAKE     CLEAR     46  46 100 CALM      30.03S
ORR            PTCLDY    52  48  87 CALM      30.00S
COOK           CLEAR     52  52 100 CALM      30.02S
$$
MNZ012-019>021-037-100600-
   Northeast Minnesota

CITY           SKY/WX    TMP DP  RH WIND       PRES   REMARKS
DULUTH         CLEAR     58  49  72 CALM      30.03S
ELY            PTCLDY    48  46  93 CALM      30.03S
HIBBING        PTCLDY    53  51  93 CALM      30.02S
EVELETH        PTCLDY    52  50  93 CALM      30.04R
DULUTH HARBOR  PTCLDY    59  55  88 CALM      30.03R
TWO HARBORS    CLEAR     50  45  81 CALM      30.02R
SILVER BAY     CLEAR     46  46 100 CALM      30.02S
GRAND MARAIS     N/A     44  43  96 CALM      30.02S
G MARAIS ARPRT PTCLDY    46  43  87 CALM      30.05S
$$
MNZ029>031-032-039>041-046>048-054>057-064-100600-
   West Central Minnesota

CITY           SKY/WX    TMP DP  RH WIND       PRES   REMARKS
FERGUS FALLS   CLEAR     63  52  67 E3        30.01R
WHEATON        CLEAR     57  52  82 E6        30.02R
MORRIS         CLEAR     57  55  94 E5        30.00S
ELBOW LAKE     FAIR      64  54  68 E3        30.01R
GLENWOOD       CLEAR     63  52  67 NE3       30.03S
APPLETON       CLEAR     61  55  82 CALM      30.00S
BENSON         CLEAR     57  55  94 CALM      30.01S
ORTONVILLE     CLEAR     64  54  68 E5        30.00S
MADISON        CLEAR     64  55  72 CALM      30.01R
WILLMAR        FAIR      63  55  77 CALM      30.03S
$$
MNZ033>034-036-042>043-049>051-058-059-100600-
   Central Minnesota

CITY           SKY/WX    TMP DP  RH WIND       PRES   REMARKS
ST CLOUD       PTCLDY    60  57  89 CALM      30.01R
SAUK CENTRE    FAIR      57  53  84 CALM      30.03R
PAYNESVILLE    CLEAR     53  52  96 CALM      30.03R
AITKIN         CLEAR     55  52  88 CALM      30.01R
PINE RIVER       N/A     55  54  94 CALM      30.05S
BRAINERD       PTCLDY    64  56  75 CALM      30.02S
STAPLES        CLEAR     57  54  88 CALM      30.02S
LONG PRAIRIE   FAIR      55  54  94 CALM      30.03S
LITTLE FALLS   CLEAR     55  54  94 CALM      30.02S
LITCHFIELD     CLEAR     61  55  82 CALM      30.03R
BUFFALO        PTCLDY    63  57  81 CALM      30.02S
MAPLE LAKE     CLEAR     60  58  92 CALM      30.02S
$$
MNZ037-044-045-052-053-100600-
   East Central Minnesota

CITY           SKY/WX    TMP DP  RH WIND       PRES   REMARKS
PRINCETON      PTCLDY    61  55  82 CALM      30.02S
MORA           CLEAR     55  54  94 CALM      30.04R
CAMBRIDGE      CLEAR     61  52  72 CALM      30.00S
RUSH CITY      PTCLDY    56  54  92 CALM      30.02S
MOOSE LAKE     CLEAR     52  50  93 CALM      30.01S
HINCKLEY       FAIR      54  54 100 CALM      30.02S
CLOQUET        CLEAR     55  50  82 CALM      30.03S
MCGREGOR       CLEAR     55  54  94 CALM      30.03R
$$
MNZ071>073-080-081-089-090-097-098-100600-
   Southwest Minnesota

CITY           SKY/WX    TMP DP  RH WIND       PRES   REMARKS
MONTEVIDEO     CLEAR     63  54  72 SE3       30.01S
GRANITE FALLS  CLEAR     62  53  72 CALM      30.03R
CANBY          CLEAR     59  56  91 CALM      30.02S
MARSHALL       CLEAR     63  54  72 MISG      30.01S
REDWOOD FALLS  CLEAR     66  52  60 E3        30.01S
OLIVIA         CLEAR     63  52  67 CALM      30.01S
PIPESTONE      CLEAR     64  55  72 SE6       30.03S
WINDOM         PTCLDY    63  55  77 CALM      30.04R
WORTHINGTON    CLEAR     63  55  77 SE6       30.05R
JACKSON        MOCLDY    61  55  82 CALM      30.04R
TRACY          CLEAR     65  54  66 CALM      30.03S
$$
MNZ065>067-074>077-082>085-091>093-100600-
   South Central Minnesota

CITY           SKY/WX    TMP DP  RH WIND       PRES   REMARKS
MANKATO        CLEAR     66  54  63 SE7       30.02R
NEW ULM        CLEAR     63  55  77 CALM      30.02R
ST JAMES       CLEAR     63  55  77 CALM      30.03R
FAIRMONT       MOCLDY    64  54  68 CALM      30.03R
GLENCOE        CLEAR     64  54  71 CALM      30.01S
FARIBAULT      CLEAR     64  54  68 SE3       30.03S
OWATONNA       CLEAR     61  57  88 SE3       30.03S
WASECA         CLEAR     59  50  72 SE6       30.04S
ALBERT LEA     PTCLDY    61  57  88 CALM      30.03S
$$
MNZ078>079-086>088-094>096-100600-
   Southeast Minnesota

CITY           SKY/WX    TMP DP  RH WIND       PRES   REMARKS
ROCHESTER      CLEAR     61  56  83 S6        30.06R
RED WING       CLEAR     59  57  94 CALM      30.02S
STANTON        CLEAR     61  56  83 CALM      30.01S
DODGE CENTER   CLEAR     63  57  82 SE3       30.04S
WINONA         CLEAR     61  59  94 CALM      30.04S
AUSTIN         CLEAR     61  57  88 CALM      30.04R
PRESTON        CLEAR     64  57  78 SE5       30.06S
$$
ABBREVIATIONS USED IN REMARKS
   TC - TEMPERATURES IN CELSIUS
  WCI - WIND CHILL INDEX
   HX - HEAT INDEX
  VSB - VISIBILITY
$$



USA.gov is the U.S. government's official web portal to all federal, state and local government web resources and services.